Tracking 19149 objects as of 20-Apr-2018
HD Live streaming from Space Station
objects crossing your sky now

SL-12 R/B(2)

Track SL-12 R/B(2) now!
10-day predictions
SL-12 R/B(2) is classified as:


NORAD ID: 15772
Int'l Code: 1985-042D
Perigee: 801.2 km
Apogee: 855.5 km
Inclination: 71.1 °
Period: 101.3 minutes
Semi major axis: 7199 km
RCS: 14.3806 m2 (large)
Launch date: May 30, 1985
Source: Commonwealth of Independent States (former USSR) (CIS)
Launch site: TYURATAM MISSILE AND SPACE COMPLEX (TTMTR)

Note: This is a ROCKET BODY
aabbcc
Your satellite tracking list
Your tracking list is empty




NASA's NSSDC Master Catalog

Two Line Element Set (TLE):
1 15772U 85042D   18109.86341705  .00000029  00000-0  35132-4 0  9993
2 15772  71.1095  48.6131 0037644 285.2231 142.6937 14.21225596705020
Source of the keplerian elements: AFSPC